Plattsburgh, NY

5:28 PM EDT on August 28, 2016 (GMT -0400)
Plattsburgh International

Weather History for KPBG - January, 2013

Change the Weather History Date:

Wednesday, January 30, 2013

  Actual Average Record
Temperature  
Mean Temperature 46 °F 17 °F  
Max Temperature 56 °F 27 °F 56 °F (2013)
Min Temperature 36 °F 6 °F -18 °F (1957)
Degree Days  
Heating Degree Days 19 48  
Month to date heating degree days 1384 1443  
Since 1 July heating degree days 4043 4329  
Cooling Degree Days 0 0  
Month to date cooling degree days 0  
Year to date cooling degree days 0  
Moisture  
Dew Point 42 °F    
Average Humidity 87    
Maximum Humidity 100    
Minimum Humidity 74    
Precipitation  
Precipitation 0.19 in - 0.67 in (1990)
Month to date precipitation 0.60  
Year to date precipitation 0.60  
Sea Level Pressure  
Sea Level Pressure 29.49 in    
Wind  
Wind Speed 13 mph (SSE)    
Max Wind Speed 23 mph    
Max Gust Speed 29 mph    
Visibility 8 miles    
Events Fog , Rain    
T = Trace of Precipitation, MM = Missing Value Source: NWS Daily Summary

Daily Weather History Graph

Daily Weather History Graph

Search for Another Location

Airport or City:

Trip Planner

Search our weather history database for the weather conditions in past years. The results will help you decide how hot, cold, wet, or windy it might be!

Date:

Astronomy

Jan. 30, 2013 Rise Set
Actual Time 7:14 AM EST 5:00 PM EST
Civil Twilight 6:43 AM EST 5:31 PM EST
Nautical Twilight 6:08 AM EST 6:06 PM EST
Astronomical Twilight 5:34 AM EST 6:40 PM EST
Moon 9:08 PM EST (1/30) 8:30 AM EST (1/30)
Length of Visible Light 10h 47m
Length of Day
9h 45m
Waning Gibbous, 88% of the Moon is Illuminated
Jan 30
Waning Gibbous
Feb 3
Last Quarter
Feb 10
New
Feb 17
First Quarter
Feb 25
Full

Hourly Weather History & Observations

Time (EST) Temp. Windchill Dew Point Humidity Pressure Visibility Wind Dir Wind Speed Gust Speed Precip Events Conditions
12:34 AM 35.6 °F 25.9 °F 33.8 °F 93% 29.87 in 8.0 mi SSE 16.1 mph - 0.05 in Rain Rain
12:53 AM 36.0 °F 28.0 °F 34.0 °F 93% 29.87 in 9.0 mi SSE 11.5 mph - 0.09 in Rain Light Rain
1:09 AM 35.6 °F 28.6 °F 35.6 °F 100% 29.86 in 8.0 mi South 9.2 mph - 0.02 in Rain Light Rain
1:53 AM 37.0 °F 29.8 °F 35.1 °F 93% 29.84 in 10.0 mi SSE 10.4 mph - 0.06 in Rain Light Rain
2:53 AM 37.0 °F 28.1 °F 34.0 °F 89% 29.81 in 10.0 mi SSE 15.0 mph - 0.02 in   Overcast
3:53 AM 37.9 °F 30.9 °F 35.1 °F 89% 29.77 in 10.0 mi South 10.4 mph - N/A   Overcast
4:49 AM 37.4 °F 28.5 °F 35.6 °F 93% 29.72 in 10.0 mi South 15.0 mph 24.2 mph 0.01 in   Overcast
4:53 AM 37.9 °F 29.6 °F 35.1 °F 89% 29.73 in 10.0 mi South 13.8 mph - 0.01 in   Overcast
5:13 AM 37.4 °F 30.8 °F 35.6 °F 93% 29.70 in 10.0 mi South 9.2 mph - N/A   Scattered Clouds
5:38 AM 37.4 °F 29.8 °F 35.6 °F 93% 29.68 in 10.0 mi SSE 11.5 mph - N/A   Mostly Cloudy
5:53 AM 39.0 °F 31.0 °F 36.0 °F 89% 29.68 in 10.0 mi SSE 13.8 mph - N/A   Mostly Cloudy
6:10 AM 37.4 °F 28.5 °F 35.6 °F 93% 29.66 in 10.0 mi SSE 15.0 mph - N/A   Partly Cloudy
7:53 AM 41.0 °F 34.3 °F 37.9 °F 89% 29.63 in 10.0 mi South 11.5 mph 21.9 mph N/A   Clear
8:53 AM 42.1 °F 34.9 °F 39.0 °F 89% 29.60 in 10.0 mi SSE 13.8 mph 18.4 mph N/A   Clear
9:53 AM 43.0 °F 38.8 °F 39.9 °F 89% 29.56 in 10.0 mi SSE 6.9 mph - N/A   Clear
10:53 AM 48.0 °F - 42.1 °F 80% 29.52 in 10.0 mi SSE 16.1 mph - N/A   Clear
11:53 AM 48.0 °F - 42.1 °F 80% 29.47 in 10.0 mi SSE 13.8 mph - N/A   Scattered Clouds
12:53 PM 50.0 °F - 43.0 °F 77% 29.42 in 10.0 mi South 8.1 mph 19.6 mph N/A   Clear
1:53 PM 48.9 °F - 44.1 °F 83% 29.38 in 10.0 mi SSE 13.8 mph 20.7 mph N/A   Mostly Cloudy
2:53 PM 48.0 °F - 44.1 °F 86% 29.36 in 10.0 mi SSE 13.8 mph 21.9 mph 0.00 in Rain Light Rain
3:53 PM 48.9 °F - 46.0 °F 90% 29.32 in 10.0 mi South 12.7 mph 25.3 mph 0.00 in   Mostly Cloudy
4:53 PM 50.0 °F - 46.0 °F 86% 29.31 in 10.0 mi SSE 10.4 mph - N/A   Partly Cloudy
5:53 PM 51.1 °F - 46.9 °F 86% 29.28 in 10.0 mi SSE 18.4 mph 28.8 mph N/A   Clear
6:53 PM 51.1 °F - 48.0 °F 89% 29.30 in 10.0 mi SSE 11.5 mph - N/A   Clear
7:53 PM 50.0 °F - 46.9 °F 89% 29.33 in 10.0 mi SSE 11.5 mph - N/A   Mostly Cloudy
8:13 PM 46.4 °F 38.7 °F 44.6 °F 93% 29.28 in 2.0 mi SE 20.7 mph 26.5 mph 0.01 in Rain Light Rain
8:17 PM 46.4 °F 39.5 °F 44.6 °F 93% 29.28 in 0.8 mi SE 17.3 mph 26.5 mph 0.01 in Rain Light Rain
8:24 PM 46.4 °F 40.1 °F 46.4 °F 100% 29.29 in 1.0 mi SSE 15.0 mph 25.3 mph 0.01 in Rain Light Rain
8:40 PM 46.4 °F 41.9 °F 44.6 °F 93% 29.28 in 0.5 mi SSE 9.2 mph - 0.01 in Fog Fog
8:46 PM 46.4 °F 42.9 °F 46.4 °F 100% 29.28 in 1.0 mi SSE 6.9 mph - 0.01 in   Overcast
8:51 PM 46.4 °F 45.2 °F 46.4 °F 100% 29.28 in 3.0 mi Variable 3.5 mph - 0.01 in   Overcast
8:53 PM 46.9 °F - 46.0 °F 97% 29.28 in 4.0 mi SSE 3.5 mph - 0.01 in   Overcast
9:05 PM 46.4 °F - 46.4 °F 100% 29.27 in 5.0 mi Calm Calm - N/A   Mostly Cloudy
9:53 PM 51.1 °F - 48.0 °F 89% 29.23 in 10.0 mi SSE 18.4 mph 23.0 mph N/A   Mostly Cloudy
10:53 PM 52.0 °F - 48.0 °F 86% 29.21 in 10.0 mi South 15.0 mph 24.2 mph 0.00 in   Overcast
11:53 PM 53.1 °F - 48.9 °F 86% 29.20 in 10.0 mi SSE 12.7 mph 27.6 mph 0.00 in Rain Light Rain